Location: Eaton
(41.3139°N, 82.0207°W)
Time: 17:49:26
(UTC+00:00)

Cosmos 2285 Rocket - Visible Passes

Search period start: 26 October 2021 00:00
Search period end: 05 November 2021 00:00
Orbit: 970 x 999 km, 74.0° (Epoch: 26 October)

Date Brightness Start Highest point End Pass type
(mag) Time Alt. Az. Time Alt. Az. Time Alt. Az.
27 Oct 6.6 10:48:17 10° NNE 10:51:14 13° NE 10:54:11 10° ENE visible
28 Oct 6.2 11:15:14 10° N 11:20:21 24° ENE 11:25:27 10° ESE visible
30 Oct 6.5 10:26:10 10° NNE 10:29:52 16° NE 10:33:33 10° E visible
31 Oct 6.0 10:53:26 10° N 10:58:54 28° ENE 11:04:19 10° ESE visible
01 Nov 5.0 11:21:21 10° N 11:27:39 52° ENE 11:33:53 10° SE visible
02 Nov 6.5 10:04:11 10° N 10:08:29 18° NE 10:12:45 10° E visible
03 Nov 5.7 10:31:42 10° N 10:37:26 33° ENE 10:43:08 10° ESE visible
04 Nov 6.7 09:15:53 10° NNE 09:17:52 11° NE 09:19:50 10° ENE visible
04 Nov 4.6 10:59:42 10° NNW 11:06:06 61° ENE 11:12:26 10° SSE visible
